Time,TemperatureF,DewpointF,PressureIn,WindDirection,WindDirectionDegrees,WindSpeedMPH,WindSpeedGustMPH,Humidity,HourlyPrecipIn,Conditions,Clouds,dailyrainin,SoftwareType,DateUTC
2013-01-11 00:02:00,47.2,39.0,30.03,South,187,0.0,0.0,73,0.00,,,0.00,weatherlink.com 1.10,2013-01-10 22:02:00,
2013-01-11 00:17:00,47.1,39.0,30.02,South,187,0.0,0.0,74,0.00,,,0.00,weatherlink.com 1.10,2013-01-10 22:17:00,
2013-01-11 00:32:00,47.1,39.0,30.01,South,187,0.0,0.0,73,0.00,,,0.00,weatherlink.com 1.10,2013-01-10 22:32:00,
2013-01-11 00:47:00,46.7,40.0,30.01,South,187,0.0,0.0,76,0.00,,,0.00,weatherlink.com 1.10,2013-01-10 22:47:00,
2013-01-11 01:02:00,47.6,40.0,30.01,South,187,0.0,0.0,76,0.00,,,0.00,weatherlink.com 1.10,2013-01-10 23:02:00,
2013-01-11 01:17:00,48.1,41.0,30.00,South,187,0.0,0.0,77,0.00,,,0.00,weatherlink.com 1.10,2013-01-10 23:17:00,
2013-01-11 01:32:00,49.2,42.0,29.99,SSW,199,0.0,5.0,77,0.00,,,0.00,weatherlink.com 1.10,2013-01-10 23:32:00,
2013-01-11 01:47:00,50.0,44.0,29.99,SSW,208,2.0,8.0,79,0.00,,,0.00,weatherlink.com 1.10,2013-01-10 23:47:00,
2013-01-11 02:02:00,49.9,45.0,29.98,SSW,205,2.0,4.0,82,0.00,,,0.00,weatherlink.com 1.10,2013-01-11 00:02:00,
2013-01-11 02:17:00,50.1,45.0,29.98,SW,215,1.0,5.0,83,0.00,,,0.00,weatherlink.com 1.10,2013-01-11 00:17:00,
2013-01-11 02:32:00,50.6,46.0,29.96,SSE,167,4.0,7.0,84,0.00,,,0.00,weatherlink.com 1.10,2013-01-11 00:32:00,
2013-01-11 02:47:00,51.3,47.0,29.96,SSW,207,3.0,7.0,84,0.00,,,0.00,weatherlink.com 1.10,2013-01-11 00:47:00,
2013-01-11 03:02:00,52.3,47.0,29.96,SSW,210,3.0,11.0,83,0.00,,,0.00,weatherlink.com 1.10,2013-01-11 01:02:00,
2013-01-11 03:18:00,52.6,48.0,29.95,WNW,287,9.0,12.0,84,0.00,,,0.00,weatherlink.com 1.10,2013-01-11 01:18:00,
2013-01-11 03:33:00,52.5,49.0,29.94,SSW,203,11.0,11.0,89,0.00,,,0.00,weatherlink.com 1.10,2013-01-11 01:33:00,
2013-01-11 03:48:00,52.3,50.0,29.94,SW,219,8.0,15.0,90,0.02,,,0.02,weatherlink.com 1.10,2013-01-11 01:48:00,
2013-01-11 04:03:00,52.2,50.0,29.92,SSW,213,9.0,18.0,92,0.02,,,0.02,weatherlink.com 1.10,2013-01-11 02:03:00,
2013-01-11 04:18:00,51.8,50.0,29.91,SW,226,5.0,16.0,94,0.05,,,0.05,weatherlink.com 1.10,2013-01-11 02:18:00,
2013-01-11 04:33:00,51.8,51.0,29.90,SSW,198,2.0,19.0,96,0.06,,,0.06,weatherlink.com 1.10,2013-01-11 02:33:00,
2013-01-11 04:48:00,51.9,51.0,29.89,South,188,6.0,14.0,96,0.04,,,0.06,weatherlink.com 1.10,2013-01-11 02:48:00,
2013-01-11 05:03:00,52.1,51.0,29.89,SSW,192,6.0,18.0,96,0.03,,,0.06,weatherlink.com 1.10,2013-01-11 03:03:00,
2013-01-11 05:18:00,52.4,52.0,29.89,SSW,201,7.0,18.0,97,0.01,,,0.06,weatherlink.com 1.10,2013-01-11 03:18:00,
2013-01-11 05:33:00,52.9,52.0,29.89,SW,217,8.0,15.0,96,0.00,,,0.06,weatherlink.com 1.10,2013-01-11 03:33:00,
2013-01-11 05:48:00,53.3,51.0,29.88,SW,220,4.0,17.0,93,0.00,,,0.06,weatherlink.com 1.10,2013-01-11 03:48:00,
2013-01-11 06:03:00,53.5,52.0,29.88,SSE,153,3.0,12.0,93,0.00,,,0.06,weatherlink.com 1.10,2013-01-11 04:03:00,
2013-01-11 06:18:00,53.7,52.0,29.88,South,173,3.0,13.0,93,0.00,,,0.06,weatherlink.com 1.10,2013-01-11 04:18:00,
2013-01-11 06:33:00,53.7,52.0,29.88,South,187,7.0,18.0,93,0.00,,,0.06,weatherlink.com 1.10,2013-01-11 04:33:00,
2013-01-11 06:48:00,53.6,51.0,29.87,SSE,152,4.0,11.0,92,0.00,,,0.06,weatherlink.com 1.10,2013-01-11 04:48:00,
2013-01-11 07:03:00,53.9,52.0,29.88,SSW,213,6.0,13.0,92,0.00,,,0.06,weatherlink.com 1.10,2013-01-11 05:03:00,
2013-01-11 07:18:00,54.0,52.0,29.87,SSW,210,3.0,11.0,92,0.00,,,0.06,weatherlink.com 1.10,2013-01-11 05:18:00,
2013-01-11 07:33:00,54.0,52.0,29.87,SSE,168,3.0,10.0,93,0.00,,,0.06,weatherlink.com 1.10,2013-01-11 05:33:00,
2013-01-11 07:48:00,53.9,52.0,29.87,South,186,3.0,9.0,93,0.00,,,0.06,weatherlink.com 1.10,2013-01-11 05:48:00,
2013-01-11 08:03:00,53.9,52.0,29.87,SSW,204,3.0,9.0,94,0.00,,,0.06,weatherlink.com 1.10,2013-01-11 06:03:00,
2013-01-11 08:18:00,54.2,52.0,29.87,SW,224,3.0,8.0,93,0.00,,,0.06,weatherlink.com 1.10,2013-01-11 06:18:00,
2013-01-11 08:33:00,54.2,52.0,29.87,SSW,199,3.0,5.0,93,0.00,,,0.06,weatherlink.com 1.10,2013-01-11 06:33:00,
2013-01-11 08:48:00,53.9,52.0,29.88,SW,225,2.0,4.0,93,0.00,,,0.06,weatherlink.com 1.10,2013-01-11 06:48:00,
2013-01-11 09:03:00,53.8,52.0,29.88,SSW,210,2.0,4.0,92,0.00,,,0.06,weatherlink.com 1.10,2013-01-11 07:03:00,
2013-01-11 09:18:00,53.8,51.0,29.88,SSW,205,1.0,3.0,91,0.00,,,0.06,weatherlink.com 1.10,2013-01-11 07:18:00,
2013-01-11 09:33:00,54.2,51.0,29.88,SW,222,4.0,5.0,89,0.00,,,0.06,weatherlink.com 1.10,2013-01-11 07:33:00,
2013-01-11 09:48:00,54.4,51.0,29.88,WSW,239,3.0,6.0,88,0.00,,,0.06,weatherlink.com 1.10,2013-01-11 07:48:00,
2013-01-11 10:03:00,54.2,51.0,29.88,SSW,196,0.0,4.0,89,0.00,,,0.06,weatherlink.com 1.10,2013-01-11 08:03:00,
2013-01-11 10:18:00,54.7,51.0,29.88,SW,225,2.0,3.0,87,0.00,,,0.06,weatherlink.com 1.10,2013-01-11 08:18:00,
2013-01-11 10:33:00,55.1,51.0,29.89,SSW,207,1.0,4.0,87,0.00,,,0.06,weatherlink.com 1.10,2013-01-11 08:33:00,
2013-01-11 10:48:00,55.7,51.0,29.88,SSW,198,3.0,5.0,85,0.00,,,0.06,weatherlink.com 1.10,2013-01-11 08:48:00,
2013-01-11 11:03:00,55.7,51.0,29.88,SSW,203,2.0,6.0,85,0.00,,,0.06,weatherlink.com 1.10,2013-01-11 09:03:00,
2013-01-11 11:18:00,56.2,52.0,29.88,SW,231,3.0,5.0,84,0.00,,,0.06,weatherlink.com 1.10,2013-01-11 09:18:00,
2013-01-11 11:33:00,56.9,52.0,29.87,South,191,1.0,8.0,83,0.00,,,0.06,weatherlink.com 1.10,2013-01-11 09:33:00,
2013-01-11 11:48:00,57.6,52.0,29.87,SSW,193,1.0,6.0,81,0.00,,,0.06,weatherlink.com 1.10,2013-01-11 09:48:00,
2013-01-11 12:03:00,57.1,51.0,29.86,SW,228,1.0,5.0,80,0.00,,,0.06,weatherlink.com 1.10,2013-01-11 10:03:00,
2013-01-11 12:18:00,57.4,50.0,29.85,SW,220,0.0,7.0,77,0.00,,,0.06,weatherlink.com 1.10,2013-01-11 10:18:00,
2013-01-11 12:33:00,57.0,49.0,29.85,South,183,3.0,8.0,75,0.00,,,0.06,weatherlink.com 1.10,2013-01-11 10:33:00,
2013-01-11 12:49:00,58.5,49.0,29.84,SW,223,3.0,9.0,72,0.00,,,0.06,weatherlink.com 1.10,2013-01-11 10:49:00,
2013-01-11 13:04:00,58.0,49.0,29.83,SW,226,1.0,8.0,72,0.00,,,0.06,weatherlink.com 1.10,2013-01-11 11:04:00,
2013-01-11 13:19:00,57.7,49.0,29.82,SW,228,1.0,6.0,73,0.00,,,0.06,weatherlink.com 1.10,2013-01-11 11:19:00,
2013-01-11 13:34:00,58.2,50.0,29.82,South,175,1.0,7.0,74,0.00,,,0.06,weatherlink.com 1.10,2013-01-11 11:34:00,
2013-01-11 13:49:00,58.3,50.0,29.82,SSW,192,2.0,5.0,73,0.00,,,0.06,weatherlink.com 1.10,2013-01-11 11:49:00,
2013-01-11 14:04:00,57.8,50.0,29.82,SW,232,5.0,7.0,74,0.00,,,0.06,weatherlink.com 1.10,2013-01-11 12:04:00,
2013-01-11 14:19:00,57.9,49.0,29.82,SSW,211,0.0,6.0,73,0.00,,,0.06,weatherlink.com 1.10,2013-01-11 12:19:00,
2013-01-11 14:34:00,58.2,50.0,29.82,SSW,203,2.0,7.0,73,0.00,,,0.06,weatherlink.com 1.10,2013-01-11 12:34:00,
2013-01-11 14:49:00,58.5,50.0,29.82,South,183,3.0,7.0,73,0.00,,,0.06,weatherlink.com 1.10,2013-01-11 12:49:00,
2013-01-11 15:04:00,58.9,50.0,29.82,SSW,203,2.0,7.0,73,0.00,,,0.06,weatherlink.com 1.10,2013-01-11 13:04:00,
2013-01-11 15:19:00,58.8,49.0,29.81,SSW,199,3.0,7.0,71,0.00,,,0.06,weatherlink.com 1.10,2013-01-11 13:19:00,
2013-01-11 15:34:00,59.3,50.0,29.81,SSW,202,0.0,6.0,70,0.00,,,0.06,weatherlink.com 1.10,2013-01-11 13:34:00,
2013-01-11 15:49:00,59.1,49.0,29.81,South,190,0.0,7.0,69,0.00,,,0.06,weatherlink.com 1.10,2013-01-11 13:49:00,
2013-01-11 16:04:00,59.1,49.0,29.82,SSW,205,4.0,8.0,69,0.00,,,0.06,weatherlink.com 1.10,2013-01-11 14:04:00,
2013-01-11 16:19:00,58.8,48.0,29.82,SSW,193,2.0,6.0,68,0.00,,,0.06,weatherlink.com 1.10,2013-01-11 14:19:00,
2013-01-11 16:34:00,58.8,48.0,29.82,SSW,196,5.0,5.0,68,0.00,,,0.06,weatherlink.com 1.10,2013-01-11 14:34:00,
2013-01-11 16:49:00,58.0,49.0,29.82,SSW,212,4.0,7.0,73,0.00,,,0.06,weatherlink.com 1.10,2013-01-11 14:49:00,
2013-01-11 17:04:00,57.3,51.0,29.82,SSW,204,3.0,7.0,78,0.00,,,0.06,weatherlink.com 1.10,2013-01-11 15:04:00,
2013-01-11 17:19:00,56.9,51.0,29.82,SSW,206,1.0,5.0,80,0.00,,,0.06,weatherlink.com 1.10,2013-01-11 15:19:00,
2013-01-11 17:34:00,56.5,51.0,29.82,SSW,213,0.0,4.0,82,0.00,,,0.06,weatherlink.com 1.10,2013-01-11 15:34:00,
2013-01-11 17:49:00,56.2,51.0,29.83,SSW,213,3.0,4.0,83,0.00,,,0.06,weatherlink.com 1.10,2013-01-11 15:49:00,
2013-01-11 18:04:00,56.0,51.0,29.83,SSW,200,0.0,2.0,84,0.00,,,0.06,weatherlink.com 1.10,2013-01-11 16:04:00,
2013-01-11 18:19:00,55.7,51.0,29.83,SSW,200,0.0,1.0,84,0.00,,,0.06,weatherlink.com 1.10,2013-01-11 16:19:00,
2013-01-11 18:34:00,55.2,50.0,29.84,SSW,200,0.0,0.0,82,0.00,,,0.06,weatherlink.com 1.10,2013-01-11 16:34:00,
2013-01-11 18:49:00,55.0,50.0,29.83,SSW,200,0.0,0.0,84,0.00,,,0.06,weatherlink.com 1.10,2013-01-11 16:49:00,
2013-01-11 19:04:00,54.3,50.0,29.84,SSW,200,0.0,0.0,84,0.00,,,0.06,weatherlink.com 1.10,2013-01-11 17:04:00,
2013-01-11 19:19:00,54.4,49.0,29.84,SSW,200,0.0,2.0,81,0.00,,,0.06,weatherlink.com 1.10,2013-01-11 17:19:00,
2013-01-11 19:34:00,53.7,48.0,29.84,SSW,200,0.0,0.0,81,0.00,,,0.06,weatherlink.com 1.10,2013-01-11 17:34:00,
2013-01-11 19:49:00,53.7,48.0,29.84,SSW,200,0.0,0.0,80,0.00,,,0.06,weatherlink.com 1.10,2013-01-11 17:49:00,
2013-01-11 20:04:00,53.4,47.0,29.84,SSW,200,0.0,0.0,80,0.00,,,0.06,weatherlink.com 1.10,2013-01-11 18:04:00,
2013-01-11 20:19:00,53.2,47.0,29.84,SSW,200,0.0,2.0,79,0.00,,,0.06,weatherlink.com 1.10,2013-01-11 18:19:00,
2013-01-11 20:34:00,53.4,47.0,29.85,SSW,200,0.0,1.0,79,0.00,,,0.06,weatherlink.com 1.10,2013-01-11 18:34:00,
2013-01-11 20:49:00,53.7,47.0,29.85,SSW,200,0.0,0.0,78,0.00,,,0.06,weatherlink.com 1.10,2013-01-11 18:49:00,
2013-01-11 21:04:00,53.8,47.0,29.85,SSW,200,0.0,0.0,79,0.00,,,0.06,weatherlink.com 1.10,2013-01-11 19:04:00,
2013-01-11 21:19:00,53.6,48.0,29.85,SSW,200,0.0,3.0,80,0.00,,,0.06,weatherlink.com 1.10,2013-01-11 19:19:00,
2013-01-11 21:34:00,53.5,47.0,29.86,SSW,200,0.0,0.0,79,0.00,,,0.06,weatherlink.com 1.10,2013-01-11 19:34:00,
2013-01-11 21:49:00,52.6,47.0,29.85,SSW,200,0.0,0.0,80,0.00,,,0.06,weatherlink.com 1.10,2013-01-11 19:49:00,
2013-01-11 22:04:00,52.7,46.0,29.86,SSW,200,0.0,0.0,79,0.00,,,0.06,weatherlink.com 1.10,2013-01-11 20:04:00,
2013-01-11 22:19:00,52.2,46.0,29.86,SSW,200,0.0,0.0,80,0.00,,,0.06,weatherlink.com 1.10,2013-01-11 20:19:00,
2013-01-11 22:34:00,51.5,46.0,29.86,ENE,63,2.0,4.0,82,0.00,,,0.06,weatherlink.com 1.10,2013-01-11 20:34:00,
2013-01-11 22:49:00,51.6,47.0,29.86,ENE,66,0.0,0.0,83,0.00,,,0.06,weatherlink.com 1.10,2013-01-11 20:49:00,
2013-01-11 23:04:00,51.3,47.0,29.87,NE,56,0.0,2.0,84,0.00,,,0.06,weatherlink.com 1.10,2013-01-11 21:04:00,
2013-01-11 23:19:00,51.2,46.0,29.86,NE,56,0.0,0.0,83,0.00,,,0.06,weatherlink.com 1.10,2013-01-11 21:19:00,
2013-01-11 23:34:00,51.1,46.0,29.87,NE,56,0.0,0.0,83,0.00,,,0.06,weatherlink.com 1.10,2013-01-11 21:34:00,
2013-01-11 23:49:00,50.4,46.0,29.87,NE,56,0.0,2.0,85,0.00,,,0.06,weatherlink.com 1.10,2013-01-11 21:49:00,